Regional Weather Roundup
Issued by NWS Northern Indiana

Home | Current Version | Previous Version | Text Only | Print | Product List | Glossary On
Versions: 1 2 3 4 5 6 7 8 9 10 11 12 13 14 15 16 17 18 19 20 21 22 23 24 25 26 27 28 29 30 31 32 33 34 35 36 37 38 39 40 41 42 43 44 45 46 47 48 49 50
000
ASUS43 KIWX 181810
RWRIWX

KIWX WEATHER ROUNDUP
NATIONAL WEATHER SERVICE NORTHERN INDIANA
200 PM EDT WED OCT 18 2017

NOTE: "FAIR" INDICATES FEW OR NO CLOUDS BELOW 12,000 FEET WITH NO
SIGNIFICANT WEATHER AND/OR OBSTRUCTIONS TO VISIBILITY.

* THESE STATIONS ARE NOT UNDER NWS QUALITY CONTROL. THEY ALSO MAY NOT
  REPORT WEATHER SUCH AS PRECIPITATION OR FOG.

INZ001>027-181900-
NORTHERN INDIANA

CITY           SKY/WX    TMP DP  RH WIND       PRES   REMARKS
GARY*          SUNNY     68  39  34 S12G23    30.13F
VALPARAISO     SUNNY     68  43  40 S14G28    30.15F
6HR MIN TEMP:  45; 6HR MAX TEMP:  68;

MICHIGAN CITY* SUNNY     66  43  42 S14G22    30.14F
LAPORTE*       SUNNY     65  43  43 S12G22    30.16F
6HR MIN TEMP:  42; 6HR MAX TEMP:  65; 6HR PCP:  0.01;

KNOX*          SUNNY     66  41  39 S16G24    30.17F
SOUTH BEND     SUNNY     66  42  41 S15       30.16F
6HR MIN TEMP:  45; 6HR MAX TEMP:  66;

ELKHART*       SUNNY     66  41  39 S14G21    30.17F
GOSHEN         SUNNY     65  40  39 SW14      30.18F
6HR MIN TEMP:  46; 6HR MAX TEMP:  65;

MONTICELLO*    SUNNY     66  39  37 S10G18    30.19F
6HR MIN TEMP:  46; 6HR MAX TEMP:  66;

LOGANSPORT*    SUNNY     64  41  42 S14G20    30.21F
WARSAW*        SUNNY     64  41  42 S10       30.20F
AUBURN*        SUNNY     64  37  36 S10G17    30.22F
FORT WAYNE     MOSUNNY   67  41  38 S15G21    30.22F
6HR MIN TEMP:  40; 6HR MAX TEMP:  67;

HUNTINGTON*    SUNNY     65  39  38 SW12G18   30.21F
6HR MIN TEMP:  43; 6HR MAX TEMP:  66;

PERU/GRISSOM   SUNNY     67  43  41 S12       30.21F
6HR MIN TEMP:  42; 6HR MAX TEMP:  67;


$$
INZ028>050-181900-
CENTRAL INDIANA

CITY           SKY/WX    TMP DP  RH WIND       PRES   REMARKS
LAFAYETTE      SUNNY     66  41  40 SW10G21   30.20F
6HR MIN TEMP:  40; 6HR MAX TEMP:  66;

KOKOMO*        SUNNY     67  42  40 S13       30.22F
6HR MIN TEMP:  40; 6HR MAX TEMP:  67;

MUNCIE*        SUNNY     69  41  36 S9G18     30.23F
6HR MIN TEMP:  44; 6HR MAX TEMP:  69;

INDIANAPOLIS   MOSUNNY   67  44  43 SW9       30.23F
6HR MIN TEMP:  43; 6HR MAX TEMP:  67;


$$
MIZ043>046-050>051-056>058-064>065-071>073-077>080-181900-
SOUTHWEST LOWER MICHIGAN

CITY           SKY/WX    TMP DP  RH WIND       PRES   REMARKS
BATTLE CREEK   SUNNY     66  42  41 MISG      30.16F
6HR MIN TEMP:  46; 6HR MAX TEMP:  66;

BENTON HARBOR  SUNNY     67  42  40 S13       30.13F
6HR MIN TEMP:  48; 6HR MAX TEMP:  67;

COLDWATER*     SUNNY     66  37  34 S9G21     30.18F
6HR MIN TEMP:  46; 6HR MAX TEMP:  66;

HILLSDALE*     SUNNY     64  37  36 S12       30.19F
HOLLAND        SUNNY     68  42  38 SW15G24   30.11F
6HR MIN TEMP:  48; 6HR MAX TEMP:  68;

GRAND RAPIDS   SUNNY     67  43  41 SW13G25   30.11F
6HR MIN TEMP:  47; 6HR MAX TEMP:  67;

KALAMAZOO      SUNNY     66  41  40 S20       30.16F
6HR MIN TEMP:  47; 6HR MAX TEMP:  66;

STURGIS*       SUNNY     65  43  45 SW16      30.17F
6HR MIN TEMP:  44; 6HR MAX TEMP:  65;

THREE RIVERS*  FAIR      66  42  40 S16       30.17F
6HR MIN TEMP:  43; 6HR MAX TEMP:  66;


$$
OHZ001>008-015>018-024>025-181900-
NORTHWEST OHIO

CITY           SKY/WX    TMP DP  RH WIND       PRES   REMARKS
WAUSEON*       FAIR      68  43  40 SW14G21   30.20F
DEFIANCE       SUNNY     66  41  40 S16G22    30.21F
6HR MIN TEMP:  42; 6HR MAX TEMP:  67;

FINDLAY        SUNNY     69  40  34 S16       30.22F
6HR MIN TEMP:  43; 6HR MAX TEMP:  69;

TOLEDO EXPRESS SUNNY     68  44  42 SW14      30.20F
6HR MIN TEMP:  39; 6HR MAX TEMP:  68;

TOLEDO METCALF SUNNY     68  43  40 S12       30.22F
6HR MIN TEMP:  42; 6HR MAX TEMP:  68;

LIMA           SUNNY     66  43  43 S13G22    30.24F
6HR MIN TEMP:  44; 6HR MAX TEMP:  66;


$$
AND FOR LAKE MICHIGAN COASTAL AND OPEN LAKE BUOY OBSERVATIONS

STATION/POSITION TEMP    WIND        PRES    VSBY  WAVE
                 AIR SEA DIR/SP/G                  HT/PER
                 (F)     (DEG/KT/KT) (MB)    (MI)  (FT/S)
CALUMET HARBOR    66     170/ 13/ 20 1018.9F
MICHIGAN CITY     64     180/ 16/ 19   N/A
BURNS HARBOR      65     180/ 11/ 20 1021.0F
SAINT JOSEPH      65     200/  8/ 15 1020.3
SOUTH LAKE BUOY   59 61  190/ 21/ 25 1019.2          5/ 6
4 MI NW BRIDGMAN  62 58  200/ 12/ 17 1020.5          3/ 4
MICHIGAN CITY     63 57  200/ 16/ 19   N/A           2/ 3

$$
&&




USA.gov is the U.S. government's official web portal to all federal, state and local government web resources and services.